Location: ??????
(38.5153°N, 23.0340°E)
Time: 13:45:56
(UTC+00:00)

Cosmos 2263 Rocket - Pass Details

Date: 13 December 2025
Orbit: 821 x 849 km, 71.0° (Epoch: 17 January)

Event Time Altitude Azimuth Distance (km) Brightness Sun altitude
Rises 16:05:53 0° 342° (NNW) 3,408 5.3 -11.2°
Reaches altitude 10° 16:08:25 10° 347° (NNW) 2,473 4.6 -11.6°
Maximum altitude 16:13:56 51° 63° (ENE) 1,057 2.3 -12.7°
Drops below altitude 10° 16:19:27 10° 139° (SE) 2,466 4.4 -13.7°
Sets 16:21:58 0° 145° (SE) 3,398 5.2 -14.1°
